Location: Tucson
(32.2217°N, 110.9265°W)
Time: 01:36:17
(UTC-07:00)

Tiros 1 - Pass Details

Date: 30 October 2021
Orbit: 630 x 663 km, 48.4° (Epoch: 07 December)

Event Time Altitude Azimuth Distance (km) Brightness Sun altitude
Rises 14:28:12 0° 310° (NW) 2,962 10.6 32.7°
Reaches altitude 10° 14:30:34 10° 311° (NW) 2,044 9.8 32.4°
Maximum altitude 14:35:16 87° 36° (NE) 645 7.7 31.7°
Drops below altitude 10° 14:39:56 10° 130° (SE) 2,014 9.7 31.0°
Sets 14:42:14 0° 130° (SE) 2,914 10.5 30.7°
